Regional Weather Roundup
Issued by NWS

Home | Current Version | Previous Version | Graphics & Text | Print | Product List | Glossary On
Versions: 1 2 3 4 5 6 7 8 9 10 11 12 13 14 15 16 17 18 19 20 21 22 23 24 25 26 27 28 29 30 31 32 33 34 35 36 37 38 39 40 41 42 43 44 45 46 47 48 49 50
000
ASUS43 KBIS 031010
RWRND

NORTH DAKOTA REGIONAL WEATHER ROUNDUP
NATIONAL WEATHER SERVICE BISMARCK ND
500 AM CDT MON AUG 03 2015

NOTE: "FAIR" INDICATES FEW OR NO CLOUDS BELOW 12,000 FEET WITH NO
SIGNIFICANT WEATHER AND/OR OBSTRUCTIONS TO VISIBILITY.


NDZ001>003-009>011-017-031100-
NORTHWEST NORTH DAKOTA

CITY           SKY/WX    TMP DP  RH WIND       PRES   REMARKS
WILLISTON      CLEAR     55  49  80 CALM      30.03S
MINOT          CLEAR     54  48  80 W8        29.99S
MINOT AFB      CLEAR     51  51  99 W8        29.99R
$$

NDZ018>021-031>035-040>046-031100-
SOUTHWEST NORTH DAKOTA

CITY           SKY/WX    TMP DP  RH WIND       PRES   REMARKS
BISMARCK       CLEAR     51  50  96 CALM      30.00S
DICKINSON      CLEAR     52  47  83 W5        30.03S
GARRISON         N/A     52  49  89 NW7       30.00S
HETTINGER ARPT CLEAR     47  44  90 W5        30.05R
$$

NDZ004>008-012>016-024-026-027-054-031100-
NORTHEAST NORTH DAKOTA

CITY           SKY/WX    TMP DP  RH WIND       PRES   REMARKS
GRAND FORKS    CLEAR     49  47  93 W8        29.89R
GRND FRKS AFB  CLEAR     50  47  89 W8        29.90R
DEVILS LAKE    CLEAR     55  45  67 W8        29.93R
$$

NDZ022-023-025-028>030-036>039-047>053-031100-
SOUTHEAST NORTH DAKOTA

CITY           SKY/WX    TMP DP  RH WIND       PRES   REMARKS
FARGO          CLEAR     52  47  83 W3        29.91R
JAMESTOWN      CLEAR     54  50  86 NW3       29.95S
$$




USA.gov is the U.S. government's official web portal to all federal, state and local government web resources and services.